Regional Weather Roundup
Issued by NWS

Home | Current Version | Previous Version | Graphics & Text | Print | Product List | Glossary Off
Versions: 1 2 3 4 5 6 7 8 9 10 11 12 13 14 15 16 17 18 19 20 21 22 23 24 25 26 27 28 29 30 31 32 33 34 35 36 37 38 39 40 41 42 43 44 45 46 47 48 49 50

332
ASUS43 KTOP 130059
RWRKS

WEATHER ROUNDUP FOR KANSAS
NATIONAL WEATHER SERVICE GOODLAND KS
700 PM CST TUE DEC 12 2017

NOTE:  "FAIR" INDICATES FEW OR NO CLOUDS BELOW 12,000 FEET WITH NO
SIGNIFICANT WEATHER AND/OR OBSTRUCTIONS TO VISIBILITY.

KSZ001>006-013>018-027>032-041>047-130200-
NORTHWEST KANSAS

CITY           SKY/WX    TMP DP  RH WIND       PRES   REMARKS
GOODLAND       CLOUDY    40  16  37 SW9       30.05F
HAYS           CLEAR     45  17  32 SW7       30.03F
HILL CITY      CLEAR     42  17  36 W5        30.02F
RUSSELL        CLEAR     42  20  41 S10       30.01F
$$

KSZ061>065-074>080-084>089-130200-
SOUTHWEST KANSAS

CITY           SKY/WX    TMP DP  RH WIND       PRES   REMARKS
DODGE CITY     CLEAR     46  14  27 SW9       30.10F
GARDEN CITY    CLOUDY    46  14  27 SW6       30.10F
GREAT BEND     CLEAR     39  16  39 SW8       30.05F
LIBERAL        CLOUDY    42  11  28 SW3       30.12F
$$

KSZ066>073-081>083-090>101-130200-
SOUTHEAST KANSAS

CITY           SKY/WX    TMP DP  RH WIND       PRES   REMARKS
CHANUTE        CLEAR     34  25  69 S8        30.14F
COFFEYVILLE    CLOUDY    35  24  64 S5        30.17F
HUTCHINSON     CLEAR     41  21  44 S7        30.08F
MEDICINE LODGE   N/A     45  23  42 S7        30.10F
NEWTON         CLEAR     40  24  53 S10       30.09F WCI  33
PARSONS        CLOUDY    29  22  75 S5        30.16F
WICHITA INTL   CLEAR     40  28  62 S9        30.10F
WICHITA JABRA  CLEAR     44  29  55 S12       30.10F
WINFIELD       CLEAR     36  28  73 S6        30.15F
$$

KSZ007>012-019>026-033>040-048>060-102>105-130200-
NORTHEAST KANSAS

CITY           SKY/WX    TMP DP  RH WIND       PRES   REMARKS
CONCORDIA      CLEAR     40  25  55 S10       30.02F WCI  33
EMPORIA        PTCLDY    35  26  69 S9        30.08F
LAWRENCE       CLEAR     28  22  78 SE5       30.09F
MANHATTAN      CLEAR     32  23  69 CALM      30.07F
OLATHE IND     CLOUDY    28  22  78 S5        30.10F
OLATHE EXE     CLOUDY    31  23  72 S5        30.09F
SALINA         CLEAR     39  24  55 S7        30.05F
TOPEKA BILLARD CLEAR     33  25  72 CALM      30.08F
TOPEKA FORBES  CLEAR     32  24  72 SE5       30.08F
$$




USA.gov is the U.S. government's official web portal to all federal, state and local government web resources and services.